Погода в Изюме

Погода в Изюме : погода сейчас, прогноз погоды и архив. Всё, что Вы хотите узнать о погоде в Изюме!

Хотите узнать прогноз погоды в Изюме? Тогда Вам сюда: Погода в Изюме

Поиск расширенной информации на нашем сайте:

Другие новости

Новости СМИ2

Главная страница сайта

Новости сайта

03.07.2017

Напоминаем, что на нашем специализированном сайте Метеоцентр.Азия вы можете получить высокодетализированные автоматические прогнозы погоды по пунктам России, СНГ и мира в авиационном формате (включающие направление и скорость ветра, видимость, явления погоды, количество и форму облачности, нижнюю и верхнюю границу облачности).

Рекомендуем: Купить хоккейные нагрудники.

Погода в Изюме - сегодня

Время (UTC), дата Ветер
(°,м/с) 
Видим.   Явления Облачность Т
(°С)
Тd
(°С)
f(%) Тe
(°С)
Pmin
(гПа)
dP
(гПа)
Po
(мм)
O2
(г/м3)
Тmin Tmax R s Состояние
почвы
00 17.04.18 тихо ()   10 км    ясно 
+9 +6.8 86 +9  1020.2  0.4  758  295           
03 17.04.18 320 (СЗ) 11000 м    8/0 верхняя 
[Cs]
+7.5 +5.9 90 +8  1020.4  0.2  758  296           
06 17.04.18 320 (СЗ) 20000 м    8/0 верхняя 
[Cs]
+14.8 +6.5 58 +16  1020.9  0.7  759  289  +7.5  +1.8      сухая 
09 17.04.18 320 (СЗ) 20000 м    10/0 средняя 
[Ac As]
+21.4 +4.9 34 +21  1020.4  -0.3  758  283           
12 17.04.18 290 (З) 20000 м    10/0 средняя 
[Ac As]
+22.3 +4.3 31 +22  1019.9  -0.4  758  282           
15 17.04.18 290 (З) 20000 м    9/0 средняя, верхняя 
[Ac trans|Ci fib]
+20.9 +6.1 38 +21  1019.4  -0.6  758  283           
18 17.04.18 тихо ()   10 км    10/0 средняя 
[Ac trans]
+16.7 +6.5 51 +17  1020.1  0.6  758  287    +23.3       
21 17.04.18 250 (З) 10 км    4/0 средняя 
[Ac trans]
+16.1 +5.4 49 +17  1020  -0.1  758  288           
00 18.04.18 250 (З) 10 км    ясно 
+14.6 +5.2 53 +15  1019.5  -0.6  758  289           
03 18.04.18 230 (ЮЗ) 18000 м    8/0 средняя 
[Ac trans]
+9.8 +5.9 77 +11  1018.9  -0.7  757  294           
06 18.04.18 230 (ЮЗ) 20000 м    10/0 средняя 
[Ac As]
+14.6 +3.6 48 +15  1018  -0.8  756  289  +9  +1.6       
09 18.04.18 230 (ЮЗ) 20000 м  слаб. дождь  10/9 600 м средняя 
[Frnb|As op]
+15.5 +7.4 58 +16  1017  -0.9  756  287           
12 18.04.18 270 (З) 16000 м  слаб. дождь  10/9 300 м средняя 
[Frnb|As op]
+12.6 +11.5 93 +16  1016.3  -0.8  755  289         
15 18.04.18 340 (С) 20000 м  {морось}  4/3 1000 м верхняя 
[Sc|Ci fib]
+15.7 +12.4 81 +20  1015.5  -0.7  755  285           
18 18.04.18 320 (СЗ) 10 км  {морось}  3/3 1000 м средняя 
[Sc|Ac trans]
+11.6 +9.6 88 +14  1015.3  -0.3  754  290    +16.9     
21 18.04.18 270 (З) 10 км    10/0 средняя 
[Ac As]
+11 +6.1 72 +11  1013.9  -1.5  753  291           
00 19.04.18 290 (З) 10 км    ясно 
+9 +5.2 77 +8  1012.3  -1.6  752  293           
03 19.04.18 290 (З) 20000 м  слаб. дождь  10/9 600 м средняя 
[Frnb|As op]
+9.2 +6.2 81 +9  1009.8  -2.5  750  291           
06 19.04.18 320 (СЗ) 20000 м  {дождь}  10/10 600 м 
[Sc]
+11.6 +5.6 67 +11  1007.3  -2.4  748  288  +8.5    0.3     
09 19.04.18 320 (СЗ) 20000 м  в посл. час ливневой дождь  10/10 600 м кучево-дожд. 
[Cb calv]
+11.8 +5.1 63 +11  1005.6  -1.6  747  288           
12 19.04.18 320 (СЗ) 20000 м  слаб. ливневой дождь  10/8 600 м кучево-дожд., средняя 
[Cb calv|As op]
+10.3 +7.4 82 +9  1004.4  -1.3  746  288      0.1     
15 19.04.18 320 (СЗ) 20000 м  слаб. дождь{ливн. осадки}  10/9 600 м средняя 
[Frnb|As op]
+9.2 +7.1 87 +9  1003.3  -1.1  745  289           
18 19.04.18 340 (С) 10 км  слаб. дождь{ливн. осадки}  10/9 600 м средняя 
[Frnb|As op]
+9.1 +7.6 90 +8  1003.7  0.4  746  289    +12.8     
21 19.04.18 320 (СЗ) 10 км  {дождь}  10/10 600 м 
[St]
+9.1 +6.5 84 +7  1003.5  -0.2  746  290           
00 20.04.18 340 (С) 10 км  в посл. час дождь  10/10 600 м 
[St]
+8.9 +5.8 81 +8  1003.9  0.4  746  290      0.6     
Время (UTC), дата Ветер
(°,м/с) 
Видим.   Явления Облачность Т
(°С)
Тd
(°С)
f(%) Тe
(°С)
Pmin
(гПа)
dP
(гПа)
Po
(мм)
O2
(г/м3)
Тmin Tmax R s Состояние
почвы

Для получения пояснительной информации подведите курсор к названию столбца.

ПОГОДА в Изюме - архив

Всё, что Вы хотите узнать о погоде в Изюме - удобно и подробно!

Выберите нужную дату (начиная с 1 января 2015* года) и нажмите кнопку "Найти".
Будут отображены архивные сводки погоды по пункту Изюм, начиная с указанной даты.


Отображать данные в формате CSV (для использования в таблицах Excel)


Внимание! Наш архив погоды предназначен исключительно для личного некоммерческого использования в познавательных целях. Если Вам необходимы официальные справки о состоянии погоды (для производственных, юридических, коммерческих и т.п. целей), обращайтесь в органы Росгидромета.

*Примечание: данная дата относится к архиву по метеостанциям СССР (Россия, СНГ, Балтия).
Архив по метеостанциям Зарубежной Европы и Азии (кроме Китая) хранится 10 дней, по другим регионам земного шара (Китай, Африка, Америка, Австралия, Океания) - 1 день.

Изюм - район местоположения метеостанции


Название, широта, долгота, высота метеостанции:
Изюм 49.2°ш. 37.3°д. 78 м над ур. моря [Украина]

Дополнительная информация

В oтличие oт бoльшинства пoгoдных сайтoв мы публикуем пoдрoбную метеoинфoрмацию в детальнoм прoфессиoнальнoм фoрмате.

Характеристики температуры и влажнoсти вoздуха измеряются на высoте 2 м в тени вдали oт зданий и деревьев.
Скoрoсть ветра измеряется на высoте 10 м (на урoвне рoста челoвека скoрoсть ветра ниже в 1.5-2 раза). Если метеoстанция нахoдится в гoрoде или в лесу, тo скoрoсть ветра занижена на 2-4 м/с пo сравнению с oткрытым местoм. Скoрoсть ветра над акватoриями крупных рек и oзёр, а также на вершинах хoлмoв на 2-5 м/с выше, чем в oбычных услoвиях.
Атмoсфернoе давление в разных тoчках местнoсти мoжет значительнo oтличаться oт давления на метеoстанции, в зависимoсти oт услoвий рельефа (при пoдъёме на 10 м давление пoнижается примернo на 1 мм рт.ст.).